This is the latest recevied weather packets stored in our database for station/object EA1CUE-WX. If no packets are shown the sender has not sent any weather packets the latest 10 day(s).
| Time | Temp. | Humidity | Pressure | Rain* | Wind** | Luminosity | Snow |
|---|---|---|---|---|---|---|---|
| 1787744930 | 12.78° C | 1% | 1009.2 hPa | 0.76 mm | - | - | - |
| 1787744629 | 12.78° C | 1% | 1009.2 hPa | 0.76 mm | - | - | - |
| 1787744329 | 12.78° C | 1% | 1008.9 hPa | 0.76 mm | - | - | - |
| 1787744030 | 12.78° C | 1% | 1008.9 hPa | 0.76 mm | - | - | - |
| 1787743729 | 12.78° C | 1% | 1008.8 hPa | 0.76 mm | - | - | - |
| 1787743430 | 13.33° C | 1% | 1008.6 hPa | 0.51 mm | - | - | - |
| 1787743130 | 13.33° C | 3% | 1008.6 hPa | 0.25 mm | - | - | - |
| 1787742832 | 13.89° C | 19% | 1008.8 hPa | 0 mm | - | - | - |
| 1787742529 | 14.44° C | 34% | 1008.9 hPa | 0 mm | - | - | - |
| 1787742230 | 15° C | 39% | 1009 hPa | 0 mm | - | - | - |
| 1787741930 | 15° C | 39% | 1008.7 hPa | 0 mm | - | - | - |
| 1787741630 | 15° C | 39% | 1008.5 hPa | 0 mm | - | - | - |
| 1787741329 | 15° C | 39% | 1008.6 hPa | 0 mm | - | - | - |
| 1787741029 | 15° C | 40% | 1008.6 hPa | 0 mm | - | - | - |
| 1787740729 | 15° C | 39% | 1008.7 hPa | 0 mm | - | - | - |
| 1787740430 | 15° C | 35% | 1009 hPa | 0 mm | - | - | - |
| 1787740129 | 15° C | 26% | 1009.3 hPa | 0 mm | - | - | - |
| 1787739829 | 15° C | 4% | 1010 hPa | 0 mm | - | - | - |
| 1787739529 | 15° C | 1% | 1010.4 hPa | 0 mm | - | - | - |
| 1787739230 | 15° C | 1% | 1010.4 hPa | 0 mm | - | - | - |
| 1787738929 | 15° C | 1% | 1010.5 hPa | 0 mm | - | - | - |
| 1787738630 | 15° C | 1% | 1010.3 hPa | 0 mm | - | - | - |
| 1787738329 | 15° C | 1% | 1010 hPa | 0 mm | - | - | - |
| 1787738029 | 15° C | 1% | 1009.9 hPa | 0 mm | - | - | - |
| 1787737729 | 15° C | 1% | 1009.8 hPa | 0 mm | - | - | - |
* Rain latest hour (hover to see other rain measurements)
** Current wind speed in m/s (hover to see current wind gust speed)